CW8399 Weather Reports


Display with metric or nautical units.
time (UTC)temp
F
wind
direction
speed
MPH
gust
MPH
rain 1hr
in
rain 24hr
in
rain mn
in
humidity
%
barometer
mb
20260904163818 83 359 9.0 16.0 0.00 0.00 0.00
20260904163320 82 0 8.0 16.0 0.00 0.00 0.00
20260904162821 82 0 6.0 14.0 0.00 0.00 0.00
20260904162323 82 0 8.0 14.0 0.00 0.00 0.00
20260904161829 82 359 6.0 13.0 0.00 0.00 0.00
20260904161332 81 0 7.0 15.0 0.00 0.00 0.00
20260904160825 81 352 11.0 15.0 0.00 0.00 0.00
20260904160325 81 359 10.0 16.0 0.00 0.00 0.00
20260904155827 80 356 7.0 16.0 0.00 0.00 0.00
20260904155329 80 359 10.0 16.0 0.00 0.00 0.00
20260904154831 80 0 7.0 17.0 0.00 0.00 0.00
20260904153827 79 359 6.0 14.0 0.00 0.00 0.00
20260904153327 79 359 8.0 12.0 0.00 0.00 0.00
20260904152827 79 359 7.0 15.0 0.00 0.00 0.00
20260904152328 79 0 9.0 15.0 0.00 0.00 0.00
20260904151828 79 0 10.0 14.0 0.00 0.00 0.00
20260904151319 78 359 8.0 14.0 0.00 0.00 0.00
20260904150825 78 359 6.0 14.0 0.00 0.00 0.00
20260904150325 78 0 7.0 14.0 0.00 0.00 0.00
20260904145827 78 0 6.0 17.0 0.00 0.00 0.00
20260904145328 78 0 6.0 17.0 0.00 0.00 0.00
20260904143826 77 353 5.0 14.0 0.00 0.00 0.00
20260904143328 77 0 6.0 13.0 0.00 0.00 0.00
20260904142829 77 0 5.0 8.0 0.00 0.00 0.00
20260904142330 77 359 4.0 7.0 0.00 0.00 0.00
20260904140833 77 350 5.0 10.0 0.00 0.00 0.00
20260904140336 77 354 5.0 12.0 0.00 0.00 0.00
20260904135837 77 0 6.0 15.0 0.00 0.00 0.00
20260904135318 77 355 7.0 15.0 0.00 0.00 0.00
20260904134825 77 359 4.0 10.0 0.00 0.00 0.00
20260904134328 77 348 5.0 12.0 0.00 0.00 0.00
20260904133820 77 0 7.0 12.0 0.00 0.00 0.00
20260904133321 77 0 4.0 12.0 0.00 0.00 0.00
20260904132823 77 0 6.0 12.0 0.00 0.00 0.00
20260904132325 77 359 6.0 12.0 0.00 0.00 0.00
20260904131829 77 345 6.0 12.0 0.00 0.00 0.00
20260904131333 77 0 5.0 10.0 0.00 0.00 0.00
20260904130827 77 0 7.0 12.0 0.00 0.00 0.00
20260904130327 77 359 6.0 12.0 0.00 0.00 0.00
20260904125333 77 0 6.0 13.0 0.00 0.00 0.00
20260904124835 77 348 8.0 14.0 0.00 0.00 0.00
20260904123830 77 344 7.0 11.0 0.00 0.00 0.00
20260904123335 77 358 5.0 12.0 0.00 0.00 0.00
20260904122817 77 0 7.0 12.0 0.00 0.00 0.00
20260904122318 77 0 6.0 12.0 0.00 0.00 0.00
20260904121345 78 0 6.0 13.0 0.00 0.00 0.00
20260904120838 78 0 4.0 13.0 0.00 0.00 0.00
20260904120319 78 0 4.0 11.0 0.00 0.00 0.00
20260904115327 78 0 5.0 12.0 0.00 0.00 0.00
20260904114828 78 359 5.0 11.0 0.00 0.00 0.00
20260904114330 78 13 7.0 11.0 0.00 0.00 0.00
20260904112828 78 0 6.0 11.0 0.00 0.00 0.00
20260904112330 78 0 5.0 11.0 0.00 0.00 0.00
20260904111833 78 0 6.0 10.0 0.00 0.00 0.00
20260904110833 78 0 5.0 11.0 0.00 0.00 0.00
20260904105318 78 359 4.0 13.0 0.00 0.00 0.00
20260904104819 78 0 5.0 8.0 0.00 0.00 0.00
20260904104342 78 307 3.0 10.0 0.00 0.00 0.00
20260904103836 78 330 5.0 12.0 0.00 0.00 0.00
20260904103319 78 355 6.0 12.0 0.00 0.00 0.00
20260904102820 78 352 5.0 12.0 0.00 0.00 0.00
20260904102320 78 359 9.0 12.0 0.00 0.00 0.00
20260904101840 78 358 4.0 7.0 0.00 0.00 0.00
20260904101333 78 0 4.0 7.0 0.00 0.00 0.00
20260904100338 78 0 3.0 8.0 0.00 0.00 0.00
20260904095837 78 296 4.0 6.0 0.00 0.00 0.00
20260904095320 78 0 4.0 7.0 0.00 0.00 0.00
20260904094823 78 0 4.0 7.0 0.00 0.00 0.00
20260904093820 78 355 3.0 6.0 0.00 0.00 0.00
20260904093321 78 341 4.0 6.0 0.00 0.00 0.00
20260904092825 78 358 3.0 8.0 0.00 0.00 0.00
20260904092325 78 63 4.0 8.0 0.00 0.00 0.00
20260904091329 78 111 3.0 6.0 0.00 0.00 0.00
20260904090820 77 0 2.0 5.0 0.00 0.00 0.00
20260904090321 77 0 2.0 3.0 0.00 0.00 0.00
20260904085822 77 353 1.0 3.0 0.00 0.00 0.00
20260904085323 77 349 2.0 4.0 0.00 0.00 0.00
20260904084822 77 0 2.0 4.0 0.00 0.00 0.00
20260904084343 77 0 2.0 4.0 0.00 0.00 0.00
20260904083820 77 0 3.0 4.0 0.00 0.00 0.00
20260904082826 77 0 1.0 3.0 0.00 0.00 0.00
20260904082327 77 0 2.0 3.0 0.00 0.00 0.00
20260904081829 77 0 0.0 2.0 0.00 0.00 0.00
20260904081331 78 0 1.0 3.0 0.00 0.00 0.00
20260904080825 78 0 1.0 3.0 0.00 0.00 0.00
20260904080327 78 0 2.0 3.0 0.00 0.00 0.00
20260904075828 78 0 1.0 2.0 0.00 0.00 0.00
20260904075330 79 0 1.0 2.0 0.00 0.00 0.00
20260904074830 79 0 0.0 3.0 0.00 0.00 0.00
20260904073827 79 0 0.0 4.0 0.00 0.00 0.00
20260904073329 79 0 2.0 5.0 0.00 0.00 0.00
20260904072829 79 0 2.0 6.0 0.00 0.00 0.00
20260904072335 79 0 3.0 6.0 0.00 0.00 0.00
20260904071816 79 289 2.0 4.0 0.00 0.00 0.00
20260904071339 79 0 1.0 4.0 0.00 0.00 0.00
20260904070831 79 0 1.0 2.0 0.00 0.00 0.00
20260904070330 80 300 0.0 1.0 0.00 0.00 0.00
20260904065830 80 352 0.0 1.0 0.00 0.00 0.00
20260904065333 80 236 0.0 2.0 0.00 0.00 0.00
20260904064833 80 215 0.0 2.0 0.00 0.00 0.00
20260904064335 81 248 0.0 3.0 0.00 0.00 0.00
20260904063826 81 0 0.0 2.0 0.00 0.00 0.00
20260904063326 81 0 0.0 2.0 0.00 0.00 0.00
20260904062828 81 0 0.0 2.0 0.00 0.00 0.00
20260904062329 82 0 0.0 2.0 0.00 0.00 0.00
20260904061832 82 0 0.0 2.0 0.00 0.00 0.00
20260904061335 82 0 0.0 1.0 0.00 0.00 0.00
20260904060827 83 0 0.0 3.0 0.00 0.00 0.00
20260904055832 83 0 2.0 4.0 0.00 0.00 0.00
20260904055335 83 0 2.0 3.0 0.00 0.00 0.00
20260904054836 84 0 1.0 3.0 0.00 0.00 0.00
20260904054336 84 0 2.0 4.0 0.00 0.00 0.00
20260904053829 84 0 2.0 8.0 0.00 0.00 0.00
20260904053333 85 0 1.0 8.0 0.00 0.00 0.00
20260904052836 85 322 3.0 4.0 0.00 0.00 0.00
20260904052337 85 352 3.0 4.0 0.00 0.00 0.00
20260904051837 85 358 3.0 6.0 0.00 0.00 0.00
20260904051338 85 357 3.0 9.0 0.00 0.00 0.00
20260904045821 85 3 4.0 5.0 0.00 0.00 0.00
20260904044825 86 0 3.0 7.0 0.00 0.00 0.00
20260904043327 86 165 2.0 8.0 0.00 0.00 0.00
20260904042829 86 0 4.0 8.0 0.00 0.00 0.00
20260904042330 86 353 2.0 5.0 0.00 0.00 0.00
20260904041832 87 0 2.0 4.0 0.00 0.00 0.00
20260904041339 87 0 1.0 6.0 0.00 0.00 0.00
20260904040832 87 0 2.0 6.0 0.00 0.00 0.00
20260904035835 88 0 3.0 7.0 0.00 0.00 0.00
20260904034821 88 351 4.0 11.0 0.00 0.00 0.00
20260904034343 88 347 6.0 11.0 0.00 0.00 0.00
20260904033323 88 0 6.0 10.0 0.00 0.00 0.00
20260904032328 89 359 6.0 11.0 0.00 0.00 0.00
20260904031829 89 343 6.0 10.0 0.00 0.00 0.00
20260904031332 89 0 6.0 12.0 0.00 0.00 0.00
20260904030826 89 353 8.0 12.0 0.00 0.00 0.00
20260904030325 89 358 6.0 9.0 0.00 0.00 0.00
20260904025826 90 358 6.0 9.0 0.00 0.00 0.00
20260904025325 90 0 3.0 8.0 0.00 0.00 0.00
20260904023828 90 0 7.0 11.0 0.00 0.00 0.00
20260904023328 91 357 5.0 11.0 0.00 0.00 0.00
20260904022830 91 359 6.0 14.0 0.00 0.00 0.00
20260904021817 91 0 9.0 16.0 0.00 0.00 0.00
20260904021340 92 0 7.0 18.0 0.00 0.00 0.00
20260904020818 92 0 8.0 18.0 0.00 0.00 0.00
20260904020320 92 0 8.0 17.0 0.00 0.00 0.00
20260904015819 93 358 6.0 17.0 0.00 0.00 0.00
20260904015322 93 0 7.0 16.0 0.00 0.00 0.00
20260904014824 94 0 6.0 14.0 0.00 0.00 0.00
20260904014343 94 358 7.0 13.0 0.00 0.00 0.00
20260904013834 94 0 7.0 17.0 0.00 0.00 0.00
20260904013335 94 0 9.0 17.0 0.00 0.00 0.00
20260904012836 95 0 7.0 17.0 0.00 0.00 0.00
20260904012337 95 359 7.0 16.0 0.00 0.00 0.00
20260904011820 95 0 6.0 17.0 0.00 0.00 0.00
20260904011340 96 0 12.0 17.0 0.00 0.00 0.00
20260904010833 96 359 11.0 17.0 0.00 0.00 0.00
20260904010336 96 0 7.0 13.0 0.00 0.00 0.00
20260904005837 96 358 8.0 13.0 0.00 0.00 0.00
20260904004344 96 354 13.0 20.0 0.00 0.00 0.00
20260904003836 96 359 7.0 23.0 0.00 0.00 0.00
20260904003337 96 358 12.0 23.0 0.00 0.00 0.00
20260904002838 96 347 8.0 23.0 0.00 0.00 0.00
20260904002318 95 359 15.0 23.0 0.00 0.00 0.00
20260904001819 96 0 8.0 22.0 0.00 0.00 0.00
20260904001341 96 350 13.0 22.0 0.00 0.00 0.00
20260904000832 96 0 11.0 18.0 0.00 0.00 0.00
20260904000335 96 0 8.0 20.0 0.00 0.00 0.00
20260903235835 96 357 10.0 20.0 0.00 0.00 0.00
20260903234840 96 358 9.0 19.0 0.00 0.00 0.00
20260903234334 96 0 8.0 16.0 0.00 0.00 0.00
20260903233838 96 359 7.0 19.0 0.00 0.00 0.00
20260903233318 96 358 13.0 19.0 0.00 0.00 0.00
20260903232821 96 357 10.0 19.0 0.00 0.00 0.00
20260903232320 96 349 11.0 19.0 0.00 0.00 0.00
20260903231821 96 359 2.0 14.0 0.00 0.00 0.00
20260903231345 96 334 7.0 19.0 0.00 0.00 0.00
20260903230837 96 330 10.0 21.0 0.00 0.00 0.00
20260903230318 96 356 14.0 21.0 0.00 0.00 0.00
20260903225820 96 351 7.0 18.0 0.00 0.00 0.00
20260903225322 96 0 12.0 18.0 0.00 0.00 0.00
20260903224823 96 0 9.0 19.0 0.00 0.00 0.00
20260903224343 96 0 8.0 19.0 0.00 0.00 0.00
20260903223836 96 359 9.0 19.0 0.00 0.00 0.00
20260903223336 96 0 6.0 19.0 0.00 0.00 0.00
20260903222818 96 346 9.0 19.0 0.00 0.00 0.00
20260903222318 96 0 9.0 19.0 0.00 0.00 0.00
20260903221837 96 354 8.0 16.0 0.00 0.00 0.00
20260903220834 96 0 6.0 15.0 0.00 0.00 0.00
20260903220335 96 0 8.0 20.0 0.00 0.00 0.00
20260903215835 96 0 14.0 23.0 0.00 0.00 0.00
20260903215337 96 358 14.0 23.0 0.00 0.00 0.00
20260903214839 96 356 10.0 22.0 0.00 0.00 0.00
20260903214328 96 354 11.0 20.0 0.00 0.00 0.00
20260903213830 96 359 10.0 20.0 0.00 0.00 0.00
20260903213331 96 0 11.0 18.0 0.00 0.00 0.00
20260903212838 96 359 7.0 18.0 0.00 0.00 0.00
20260903212339 96 0 7.0 13.0 0.00 0.00 0.00
20260903211837 96 355 10.0 13.0 0.00 0.00 0.00
20260903211338 96 344 6.0 17.0 0.00 0.00 0.00
20260903210829 96 354 12.0 18.0 0.00 0.00 0.00
20260903210331 96 354 12.0 18.0 0.00 0.00 0.00
20260903205831 96 0 9.0 17.0 0.00 0.00 0.00
20260903205334 96 346 11.0 17.0 0.00 0.00 0.00
20260903204836 96 358 10.0 17.0 0.00 0.00 0.00
20260903204336 96 351 10.0 17.0 0.00 0.00 0.00
20260903203331 95 358 10.0 19.0 0.00 0.00 0.00
20260903202832 95 357 9.0 16.0 0.00 0.00 0.00
20260903202334 95 347 10.0 16.0 0.00 0.00 0.00
20260903201839 95 358 10.0 18.0 0.00 0.00 0.00
20260903201342 95 0 9.0 17.0 0.00 0.00 0.00
20260903200835 94 351 9.0 18.0 0.00 0.00 0.00
20260903200336 94 355 10.0 18.0 0.00 0.00 0.00
20260903195837 94 359 7.0 17.0 0.00 0.00 0.00
20260903194820 94 357 10.0 15.0 0.00 0.00 0.00
20260903194339 93 0 8.0 15.0 0.00 0.00 0.00
20260903193830 93 359 10.0 19.0 0.00 0.00 0.00
20260903193330 93 0 9.0 19.0 0.00 0.00 0.00
20260903192831 93 356 8.0 15.0 0.00 0.00 0.00
20260903191835 92 0 9.0 18.0 0.00 0.00 0.00
20260903190830 92 350 8.0 20.0 0.00 0.00 0.00
20260903190331 92 358 11.0 20.0 0.00 0.00 0.00
20260903185836 91 358 10.0 17.0 0.00 0.00 0.00
20260903185337 91 359 7.0 14.0 0.00 0.00 0.00
20260903184837 91 359 8.0 15.0 0.00 0.00 0.00
20260903184341 91 0 10.0 15.0 0.00 0.00 0.00
20260903183834 90 358 8.0 15.0 0.00 0.00 0.00
20260903183335 90 0 7.0 22.0 0.00 0.00 0.00
20260903182837 90 355 12.0 22.0 0.00 0.00 0.00
20260903181824 89 352 9.0 17.0 0.00 0.00 0.00
20260903181346 89 0 11.0 17.0 0.00 0.00 0.00
20260903180838 88 352 7.0 18.0 0.00 0.00 0.00
20260903180320 88 346 12.0 18.0 0.00 0.00 0.00
20260903175821 88 354 7.0 14.0 0.00 0.00 0.00
20260903175327 87 344 7.0 16.0 0.00 0.00 0.00
20260903174831 87 358 7.0 17.0 0.00 0.00 0.00
20260903174331 86 0 8.0 17.0 0.00 0.00 0.00
20260903173823 86 356 7.0 15.0 0.00 0.00 0.00
20260903173325 86 357 9.0 16.0 0.00 0.00 0.00
20260903172825 85 348 9.0 16.0 0.00 0.00 0.00
20260903172325 85 0 8.0 15.0 0.00 0.00 0.00
20260903171828 85 0 8.0 15.0 0.00 0.00 0.00
20260903171328 85 0 9.0 13.0 0.00 0.00 0.00
20260903170323 84 0 9.0 16.0 0.00 0.00 0.00
20260903165824 84 353 4.0 16.0 0.00 0.00 0.00
20260903165325 83 352 8.0 18.0 0.00 0.00 0.00
20260903164826 83 352 10.0 18.0 0.00 0.00 0.00
20260903164330 83 357 8.0 16.0 0.00 0.00 0.00